Wind_Speed
17 19 22 24 27 29 32 34 36 38 39 41 43 45 47 48 49 50 52 53 51 45 37 28 20 19 19 17 16 16 14 12 10 11 15 20 24 27 28 27 26 25 24 23 22 21 21 22 23 22 22 23 22 21 19 13 8 7 9 9 10 11 10 10 9 7 6 8 10 10 9 8 7 7 7 9 11 10 10 10 6 3 2 6 7 7 10 12
16 18 20 23 25 28 30 32 34 36 38 40 41 43 45 46 48 49 50 52 52 49 41 32 22 19 19 17 17 18 17 15 12 12 14 18 21 22 23 23 22 21 21 21 20 20 21 20 19 19 21 21 19 18 15 11 7 5 7 8 10 11 9 9 7 6 6 6 10 11 11 11 10 9 8 8 10 11 11 10 9 9 8 8 9 9 11 12
15 17 19 21 24 26 28 30 32 34 36 38 40 41 43 45 47 48 50 51 52 51 45 36 26 20 20 19 18 19 19 17 14 13 14 15 16 16 17 19 20 20 19 18 18 18 18 18 17 18 20 19 17 16 13 10 8 7 8 9 12 13 9 7 6 6 8 9 11 11 11 11 12 13 13 10 10 11 11 11 11 11 11 13 13 14 14 14
13 15 18 20 22 24 26 28 30 32 35 37 38 40 42 43 45 47 49 50 51 51 48 41 31 23 21 20 19 20 19 18 17 16 15 14 14 14 14 16 18 18 16 14 14 15 15 14 14 15 16 17 17 16 12 11 11 9 10 11 13 15 12 9 8 8 10 12 14 15 13 12 13 15 16 15 12 11 11 11 12 12 13 14 15 16 16 15
12 14 16 18 20 23 25 27 29 30 33 35 37 38 40 42 44 46 47 48 49 51 50 44 34 24 21 21 20 20 19 18 17 17 15 14 14 14 14 15 16 15 13 12 11 12 11 10 10 12 13 13 14 13 10 10 11 9 10 12 13 16 15 12 11 11 13 14 16 17 16 15 15 17 18 18 17 14 12 12 13 14 14 15 16 16 17 17
11 13 15 17 19 21 23 25 27 29 31 33 35 37 38 40 42 44 45 47 47 49 49 45 37 26 21 20 19 19 19 17 15 13 12 12 12 12 13 14 14 14 13 12 11 10 8 7 7 8 9 9 8 7 7 8 9 9 11 12 13 15 16 16 15 15 15 15 16 17 18 17 17 18 19 19 19 17 15 15 15 15 15 15 16 16 17 18
10 11 13 15 18 20 22 24 25 27 29 31 33 35 37 38 39 41 43 45 46 47 48 46 40 29 21 19 19 18 17 16 15 12 10 10 9 9 10 12 13 13 12 12 11 10 7 8 8 6 7 6 3 1 3 6 9 11 12 14 15 16 17 18 18 18 18 17 17 16 16 17 18 19 19 19 19 19 18 18 17 15 15 15 16 17 17 18
10 11 12 14 16 18 20 22 24 25 27 29 31 33 35 36 37 39 41 43 45 46 47 46 43 34 23 19 19 17 17 17 15 13 11 10 9 7 9 10 10 10 10 10 10 9 7 8 9 8 8 7 4 2 1 3 6 9 11 13 16 17 18 20 20 21 20 18 18 17 16 17 18 18 18 17 17 17 18 18 17 16 15 15 16 17 18 18
9 11 12 14 16 17 19 20 22 24 25 27 29 31 33 35 36 37 39 42 44 44 45 46 44 38 27 19 17 17 19 19 15 13 11 10 9 8 9 10 9 10 11 11 10 9 8 9 10 9 8 7 5 5 4 2 1 4 5 7 9 12 13 14 16 18 19 18 17 18 19 19 18 17 17 17 17 17 17 17 17 16 16 16 17 19 19 19
9 10 12 13 15 17 18 19 21 22 23 25 27 29 31 33 34 36 37 39 41 42 43 44 44 41 32 21 17 18 21 20 18 16 13 11 11 11 11 11 11 13 13 11 11 10 9 9 10 10 9 8 8 8 6 5 4 4 5 5 5 6 8 8 9 12 13 13 14 15 17 19 19 19 19 18 18 17 17 17 16 16 16 17 19 19 19 19
9 10 11 12 14 16 17 18 19 21 21 23 25 27 30 31 33 34 35 37 39 41 41 43 43 42 36 25 18 19 22 22 20 19 16 16 16 17 16 15 14 14 13 12 12 12 13 13 12 12 10 9 9 7 7 7 7 6 6 6 5 4 4 5 5 6 7 8 10 12 13 15 16 17 17 17 17 17 17 17 16 16 16 17 18 17 17 17
9 9 10 12 13 15 16 17 18 19 20 21 22 25 27 30 31 32 33 35 36 39 40 41 41 41 38 30 21 20 23 22 21 20 19 20 20 21 21 20 17 16 15 14 14 14 15 14 13 11 10 9 8 8 10 12 12 11 9 7 5 4 2 2 3 3 4 6 6 6 7 8 9 10 11 12 13 15 15 15 15 15 15 16 15 15 14 15
10 9 9 11 13 15 16 17 17 18 19 19 20 22 25 27 30 31 31 33 34 36 38 39 39 39 38 34 25 20 21 20 19 19 20 20 20 20 21 20 17 16 15 14 14 14 13 13 12 11 11 11 11 12 14 15 17 15 11 9 7 6 5 2 1 2 3 3 2 1 1 2 2 4 6 8 9 9 9 10 10 11 11 12 13 13 13 13
11 10 10 10 12 14 15 16 17 17 18 18 18 20 22 25 28 29 29 30 32 34 36 37 37 37 37 36 30 20 16 15 14 15 17 16 16 17 17 16 15 14 14 14 14 13 12 13 13 12 12 12 13 14 14 17 19 17 14 13 11 11 10 7 5 4 3 3 3 4 3 4 5 5 5 4 4 4 4 5 6 8 9 10 12 12 12 13
13 11 11 11 11 13 15 16 17 16 17 17 17 18 20 22 25 27 28 28 30 31 33 35 36 35 35 36 33 24 14 11 10 11 13 13 13 15 14 13 11 11 11 12 13 12 12 13 13 13 13 13 15 15 15 18 21 17 16 17 16 16 16 14 11 10 8 7 7 7 6 6 6 4 4 4 4 5 5 6 7 8 9 10 11 11 12 13
15 13 12 12 11 12 14 15 16 16 16 16 16 17 18 20 23 25 26 26 27 29 30 32 34 34 34 35 35 29 18 11 10 10 11 11 12 14 12 10 9 9 9 11 11 11 11 12 13 14 13 14 16 16 17 20 21 18 17 18 19 19 19 17 15 14 12 10 8 8 8 7 7 8 10 9 8 7 7 8 8 9 10 10 10 12 13 13
18 16 14 13 13 12 13 14 16 16 15 15 15 16 17 18 20 23 24 24 25 27 29 30 31 33 33 33 34 32 24 16 12 10 10 10 12 11 9 8 8 8 9 10 11 11 12 13 13 13 13 14 15 15 17 20 20 18 18 18 18 19 19 19 18 17 14 13 12 11 11 11 10 10 11 11 10 9 9 9 9 11 12 11 12 14 14 13
20 18 16 15 14 13 13 13 14 15 15 14 14 15 16 16 18 21 23 22 23 25 26 28 30 32 32 32 32 31 28 23 17 13 12 11 11 9 8 8 7 7 8 10 12 13 13 13 12 12 13 14 14 14 16 18 19 19 18 17 16 17 19 19 19 18 18 18 16 13 13 14 12 12 12 12 12 12 11 10 12 13 13 12 13 15 15 15
22 20 18 17 16 15 14 13 13 14 15 14 13 14 15 15 17 20 21 21 21 23 24 25 27 30 31 30 29 29 29 27 22 18 16 14 10 8 9 8 5 7 8 9 12 14 14 12 11 12 13 14 14 15 16 17 18 19 19 17 16 16 17 17 17 17 20 21 20 17 15 16 15 14 15 15 16 15 13 13 14 14 13 12 13 15 16 16
24 22 21 19 18 17 15 14 13 13 14 14 13 13 14 14 15 18 20 19 19 20 21 23 25 27 29 28 27 26 27 27 25 22 19 16 12 10 9 7 5 8 9 8 10 13 12 11 12 13 14 15 14 14 16 17 17 18 19 19 18 17 15 14 15 17 19 21 21 20 19 19 19 18 18 18 17 15 15 15 14 13 13 13 14 16 16 17
26 25 23 22 20 19 17 15 13 12 13 14 13 13 13 13 14 16 18 18 17 18 19 20 22 24 26 26 24 24 25 26 25 24 22 19 16 13 11 9 7 9 10 8 8 10 9 10 13 13 13 13 14 15 16 15 15 15 18 19 19 18 15 13 15 16 17 18 19 20 20 19 19 19 19 18 17 16 15 14 14 14 14 15 17 17 17 17
29 27 26 24 22 21 19 17 14 13 12 13 14 13 13 13 13 14 16 16 15 16 16 17 19 22 22 22 22 22 22 23 24 25 24 22 18 14 12 11 10 9 8 5 5 7 7 9 11 11 10 11 13 15 14 13 13 14 15 15 14 15 14 13 13 14 15 15 16 18 18 16 16 16 16 16 17 17 15 13 12 13 15 17 18 19 19 18
32 30 28 26 25 23 21 19 17 14 13 13 14 14 13 13 13 14 15 14 13 13 14 15 17 19 18 19 20 20 20 20 23 25 25 23 20 16 14 13 11 9 7 5 6 7 7 8 9 10 10 11 12 13 13 13 13 12 12 11 11 12 12 12 12 12 13 14 14 15 16 15 14 14 14 14 15 18 17 14 13 13 15 17 18 19 20 19
35 33 31 29 27 25 23 21 19 16 14 13 14 14 14 14 13 13 14 13 11 10 12 14 15 15 15 16 18 19 19 19 23 25 23 22 20 19 18 16 12 11 11 9 8 8 7 7 8 9 8 10 11 11 11 12 11 10 10 10 10 11 11 11 12 13 12 12 13 14 15 15 13 12 12 12 13 15 17 18 16 14 14 17 18 19 19 19
37 36 34 32 29 27 25 24 22 18 15 15 14 14 14 14 14 13 13 12 10 8 9 11 12 11 11 14 16 17 18 19 21 22 20 20 20 20 20 18 14 13 12 11 11 10 8 5 5 6 6 9 10 9 9 10 9 9 11 12 11 10 11 12 13 14 12 11 12 14 14 14 12 11 11 11 13 15 16 17 18 16 14 16 18 18 19 20
39 38 37 34 32 30 28 26 25 21 18 17 15 15 15 15 15 14 12 12 10 7 7 9 9 9 9 11 13 15 16 16 17 18 18 18 19 19 19 19 18 15 12 12 12 12 9 6 5 4 5 6 6 6 8 10 10 11 12 13 11 10 11 13 15 16 13 10 12 14 14 13 11 12 12 12 15 17 16 16 16 16 16 16 17 18 20 20
41 40 39 37 35 33 31 29 27 24 21 18 16 16 16 16 16 14 12 12 11 7 6 7 8 9 8 8 10 12 13 14 14 15 15 16 17 17 17 18 19 17 14 13 13 12 11 9 8 7 6 5 5 6 8 10 11 12 12 12 11 11 13 15 16 16 14 11 12 14 16 15 14 14 14 13 15 17 17 16 14 13 15 16 16 18 20 21
43 41 40 38 36 35 33 31 29 26 23 21 19 18 18 17 17 15 13 12 11 9 7 6 6 7 7 7 8 9 10 11 12 14 13 14 15 15 16 17 18 16 15 15 13 12 13 12 10 9 8 7 8 10 11 12 12 12 12 11 11 12 14 15 15 15 14 12 13 14 16 17 16 16 15 14 15 15 16 16 15 15 15 15 15 16 18 20
45 43 41 40 38 36 35 33 30 28 26 24 22 21 19 18 18 16 14 13 13 11 9 7 6 6 6 6 6 7 8 8 10 11 12 12 13 15 17 17 16 15 16 16 15 14 14 14 14 13 12 12 13 14 15 15 14 13 12 12 11 11 12 13 13 13 13 13 14 15 16 16 16 16 16 15 15 14 15 15 15 15 14 14 13 14 16 18
46 44 44 42 40 38 36 34 32 30 28 27 25 22 20 20 19 17 15 13 13 13 11 9 7 6 6 6 6 6 6 7 7 9 10 11 12 14 16 16 15 15 16 17 16 16 16 16 17 17 17 17 17 17 18 17 17 16 16 15 13 12 12 13 14 14 14 15 16 16 15 14 13 14 14 15 15 15 14 13 12 12 13 13 14 15 17 18
48 45 44 43 42 40 38 35 33 31 30 29 27 25 23 22 21 19 17 14 14 15 13 11 9 8 7 6 6 6 6 5 4 5 8 9 10 12 13 14 15 14 16 17 17 17 16 16 19 20 20 21 20 21 21 20 21 21 21 21 19 18 19 19 19 20 22 22 22 20 19 18 17 17 18 19 19 19 18 16 14 14 14 14 15 16 17 17
50 48 46 44 43 42 40 37 35 33 32 30 29 27 25 24 23 21 18 15 15 16 15 13 11 10 9 7 7 7 7 5 4 2 4 6 8 10 12 13 13 14 14 15 15 16 16 18 20 21 21 22 23 24 24 24 24 23 23 24 25 26 26 25 26 27 29 30 29 27 25 26 26 26 25 25 25 24 22 20 19 18 17 16 16 17 17 18
50 50 48 45 43 42 41 40 37 35 33 32 30 28 27 26 25 23 20 16 16 17 16 15 13 12 11 10 8 8 8 7 5 3 2 2 4 7 9 11 12 12 12 12 14 15 17 19 20 19 20 20 21 23 24 25 24 24 25 26 28 30 29 28 29 30 31 33 33 32 30 30 29 28 27 27 28 26 25 23 23 22 20 19 18 18 20 22
51 50 50 48 46 43 42 41 39 37 35 34 32 30 29 28 26 25 22 18 17 18 18 16 15 13 13 12 10 9 9 9 8 5 3 2 2 2 5 8 9 9 9 10 12 14 15 17 18 18 19 18 19 21 23 24 24 24 25 26 28 30 29 28 29 30 30 32 33 33 33 32 30 28 27 29 31 30 30 29 28 26 24 22 20 20 23 26
55 52 51 50 48 46 44 42 40 39 38 36 33 33 32 29 28 27 23 20 19 19 20 18 16 16 14 13 13 11 9 10 10 8 5 3 3 3 1 5 6 5 7 9 10 11 12 14 15 16 16 17 18 19 20 21 22 22 23 25 27 28 28 28 28 29 29 30 31 31 32 33 33 31 29 30 33 34 34 35 34 33 32 30 28 27 28 30
60 57 54 51 49 48 46 44 41 39 39 38 36 36 35 31 30 27 24 22 21 21 22 21 19 18 16 15 14 13 11 10 11 10 8 6 5 5 2 2 2 2 4 6 8 9 10 12 13 13 13 14 15 16 17 18 18 18 21 22 23 23 24 25 26 28 29 30 30 29 29 31 32 32 31 30 31 31 32 33 33 33 33 33 32 31 31 31
64 62 58 54 51 48 46 45 43 40 39 39 39 40 37 33 31 29 27 25 23 23 25 23 21 20 17 16 15 14 12 11 11 12 11 9 8 6 4 2 2 1 1 2 5 6 8 10 11 11 11 12 14 14 15 15 15 15 17 18 18 19 20 21 24 26 27 28 29 29 29 28 28 29 29 29 28 29 29 30 30 29 29 29 29 30 30 30
67 65 62 58 55 51 47 45 44 42 40 39 42 43 39 36 34 32 30 28 26 25 26 25 24 22 19 17 15 15 14 13 12 13 13 12 10 8 6 5 5 4 2 1 2 3 5 6 8 9 10 11 13 14 13 13 13 14 14 14 15 16 18 19 20 21 23 25 26 27 28 27 25 25 26 27 27 27 27 28 28 28 27 28 29 30 30 31
69 69 65 62 59 55 50 46 45 44 42 41 45 46 41 38 37 34 32 31 28 26 26 27 26 23 21 19 16 16 17 15 14 14 15 15 13 10 8 8 7 6 5 3 2 1 2 3 4 6 8 9 10 11 12 12 12 12 13 12 13 14 15 16 17 17 19 21 23 24 25 24 23 23 23 24 26 27 27 28 28 28 28 29 32 33 33 33
71 71 68 65 63 59 54 50 47 44 44 45 47 47 44 41 39 36 36 35 31 28 28 29 29 26 24 21 19 18 19 17 15 15 15 16 16 14 12 10 9 8 6 5 4 2 1 1 2 3 5 6 7 8 9 10 10 11 12 12 12 12 13 14 14 15 16 18 20 21 22 22 22 22 21 21 23 24 26 27 28 29 29 31 33 35 35 36
72 71 69 67 65 62 59 55 51 47 46 47 50 49 45 42 41 39 38 37 33 29 29 31 31 29 27 24 21 20 19 17 15 15 15 16 18 17 16 13 11 9 8 7 5 4 3 1 2 1 1 3 5 6 7 8 8 9 10 11 12 12 12 13 13 14 15 16 17 19 20 21 22 21 20 20 21 21 23 25 27 28 29 30 31 33 35 36
74 72 71 70 68 65 62 60 56 51 49 50 52 51 45 42 42 41 40 38 34 30 31 33 34 32 29 26 23 21 20 18 18 17 16 17 20 21 19 16 13 11 11 9 8 7 5 3 3 3 2 1 2 3 5 6 6 7 9 10 11 12 12 13 14 15 15 15 16 17 19 19 19 19 20 21 21 21 22 24 26 28 29 29 30 31 32 34
76 74 73 72 71 68 65 63 60 56 54 53 52 51 47 42 41 42 42 40 37 33 33 36 36 34 31 28 26 24 22 21 20 19 17 17 20 23 21 18 15 14 13 11 9 8 7 5 5 5 4 2 1 2 3 4 5 6 7 8 10 11 12 13 13 14 15 16 16 16 17 18 18 18 18 19 20 21 22 24 26 27 28 29 29 28 29 30
80 78 76 74 72 71 67 65 64 62 60 56 52 51 48 44 42 43 42 41 39 36 36 37 37 36 33 30 28 26 24 23 21 19 18 17 20 23 22 20 19 17 15 13 11 10 8 7 7 7 6 5 3 3 3 4 5 5 7 8 9 10 11 11 12 13 14 16 16 16 16 17 17 17 17 17 18 19 20 23 25 26 25 26 27 27 28 30
83 81 79 76 73 72 70 69 67 65 63 60 55 52 50 48 47 45 43 42 41 40 39 38 38 38 36 33 31 27 26 25 23 21 21 19 19 21 22 22 22 21 18 15 12 11 10 9 8 8 8 7 6 5 5 5 5 6 7 8 8 9 10 11 12 12 13 14 15 16 16 16 17 17 17 18 18 18 19 21 23 23 23 24 26 27 28 30
86 84 82 79 75 73 73 72 70 68 66 63 59 55 52 51 51 47 43 42 43 43 42 40 40 40 39 37 34 30 29 28 25 23 21 18 17 19 21 23 24 23 20 17 15 14 13 12 11 11 10 9 9 8 7 6 7 7 7 8 8 8 9 10 11 12 13 14 15 15 15 15 16 18 18 19 20 20 20 20 20 20 21 23 26 27 27 28
88 86 85 83 78 74 74 75 73 70 68 65 62 58 55 53 53 48 44 44 45 45 45 43 42 42 41 40 37 33 32 30 27 23 20 18 19 21 22 23 23 23 22 20 18 18 17 15 14 13 12 12 11 10 9 8 8 7 7 8 9 8 9 9 10 11 12 14 15 16 16 15 15 16 18 19 21 22 22 21 20 21 22 23 24 26 26 27
90 89 88 86 81 76 75 76 75 72 69 66 64 62 59 56 54 51 48 47 48 48 48 46 44 43 42 41 39 36 33 31 28 24 22 23 22 21 21 22 22 22 21 20 20 21 19 18 17 16 15 14 12 11 10 9 8 7 7 8 8 9 10 10 11 11 12 14 15 17 17 16 15 16 16 18 20 21 23 24 24 24 24 24 24 24 25 26
94 92 90 88 84 80 77 76 76 75 72 68 66 66 63 60 57 54 52 52 52 51 50 48 46 45 44 43 41 39 35 31 30 28 26 25 24 21 21 22 22 22 21 21 22 23 21 20 19 17 16 14 13 12 9 7 7 7 7 7 6 7 9 11 11 12 13 14 15 16 18 18 18 17 17 17 18 19 22 25 26 26 26 26 25 25 26 26
97 94 92 90 87 83 80 78 77 77 76 72 68 68 67 63 60 58 56 55 55 54 51 49 46 46 46 44 42 40 36 32 31 31 28 26 25 24 23 24 24 23 23 23 23 21 20 20 20 19 17 14 12 11 9 7 8 7 7 8 6 6 8 9 11 13 14 15 16 17 18 19 19 20 19 18 18 18 20 23 26 27 28 28 28 28 28 28
100 97 94 92 89 86 84 81 79 78 77 75 71 70 69 67 65 62 59 57 57 55 51 48 45 45 45 43 42 40 37 34 33 32 30 28 26 25 25 26 26 24 23 23 22 19 18 19 20 20 18 15 13 12 11 11 11 9 7 9 9 7 7 8 10 12 14 15 17 18 18 19 20 21 21 20 19 18 19 21 23 26 28 29 29 30 30 30
103 100 97 94 91 89 87 84 82 79 78 77 75 72 70 69 68 66 61 59 58 55 52 49 46 46 46 45 44 42 40 39 36 33 32 31 29 27 27 28 27 25 25 25 23 21 20 20 21 20 19 15 14 14 14 14 15 11 9 11 11 10 8 8 10 11 12 14 17 18 19 19 20 22 23 22 20 19 19 21 22 24 26 27 28 29 31 32
Wind_Direction
24 26 28 28 28 28 26 25 24 24 24 24 25 25 24 24 25 26 26 25 24 24 24 26 39 48 46 48 55 53 50 55 74 94 108 113 115 116 117 115 112 113 113 112 113 119 133 144 153 157 161 162 155 152 150 148 145 153 173 176 169 166 169 177 181 186 200 200 193 199 212 216 204 207 224 228 242 248 233 231 231 223 320 337 333 314 292 290
21 23 25 26 26 26 25 24 23 23 23 23 24 24 24 23 24 26 27 26 25 25 25 27 36 53 56 56 65 66 59 58 71 90 107 114 116 117 117 115 113 113 112 111 112 118 131 140 149 161 166 162 158 159 159 163 170 185 199 198 190 180 177 187 191 204 226 233 217 218 232 239 234 229 230 222 229 242 242 240 245 250 266 298 317 317 307 300
17 20 21 23 24 24 24 23 22 21 21 22 23 24 24 23 23 25 26 26 25 25 26 28 34 50 62 65 71 74 71 69 78 93 106 114 115 113 114 117 117 117 115 114 114 119 128 133 144 159 165 164 164 170 172 180 195 213 219 220 213 200 194 204 212 222 239 252 240 235 243 250 248 243 244 235 228 242 250 252 257 262 273 288 301 309 310 308
11 16 18 19 20 22 22 22 21 20 20 20 21 22 23 23 23 24 25 26 26 25 26 28 33 46 62 70 76 80 83 87 95 102 106 110 109 108 114 122 123 120 117 113 116 119 124 129 139 153 162 167 170 177 184 192 204 216 218 222 224 217 213 216 222 232 245 254 252 246 244 251 252 248 247 242 240 250 254 260 267 274 282 291 302 310 314 314
4 10 13 15 17 19 20 21 20 19 19 19 20 21 22 22 23 23 24 25 25 25 26 27 32 42 58 71 79 84 90 94 98 99 99 100 102 105 113 125 130 126 120 116 116 116 120 127 134 146 155 164 172 183 199 205 209 217 217 219 226 227 227 227 229 242 252 250 252 251 247 252 257 254 252 249 249 256 262 267 271 279 287 295 303 309 314 316
356 4 8 11 14 16 18 19 19 18 17 18 19 20 21 22 22 23 24 24 25 26 26 27 30 38 52 65 75 80 84 85 83 86 93 100 104 108 114 124 130 130 126 124 121 115 124 130 125 144 158 169 182 201 228 229 221 225 226 226 232 237 240 243 243 252 258 252 247 248 248 251 259 261 259 258 257 259 266 273 276 281 289 296 301 307 311 313
347 357 3 7 10 13 15 16 17 17 17 17 17 19 20 21 22 23 24 24 25 26 26 26 28 34 44 55 66 73 78 80 78 80 90 99 107 115 120 125 126 127 127 124 119 114 122 123 115 133 155 158 163 229 253 246 238 239 240 236 241 249 252 253 251 252 259 260 249 243 245 250 257 261 259 260 261 262 267 273 279 283 289 295 299 304 306 308
337 348 356 2 5 9 11 14 15 16 16 16 16 17 18 20 21 22 24 24 25 26 26 26 27 31 38 48 58 66 75 79 78 81 87 91 97 113 129 130 123 122 126 121 117 117 115 111 115 122 122 114 94 73 126 238 248 252 253 250 251 255 256 255 253 251 256 261 251 241 242 246 250 254 255 258 261 265 269 273 278 281 288 295 300 303 305 306
328 340 349 356 0 4 7 10 13 14 15 15 15 15 17 18 20 21 23 24 25 25 26 26 27 29 34 43 50 57 70 72 72 78 83 85 90 109 130 129 117 113 115 112 110 119 120 116 120 118 108 101 97 95 91 66 314 279 276 274 264 260 260 258 256 253 254 258 251 245 246 248 249 250 254 258 262 267 271 273 276 279 286 294 301 304 306 307
318 331 341 349 355 359 3 6 10 13 14 14 14 14 15 17 18 20 22 24 25 25 26 26 26 28 31 38 42 52 69 73 72 75 78 81 86 100 118 119 110 105 102 99 95 103 111 109 106 100 99 99 96 90 71 42 12 344 332 324 297 275 268 260 253 250 250 253 252 251 253 254 254 254 256 259 262 266 270 273 276 280 287 296 302 304 305 305
305 320 333 343 349 354 358 2 6 10 12 13 14 13 13 15 17 18 21 24 25 26 26 26 26 27 29 34 41 57 72 78 76 76 78 81 84 92 105 107 102 96 90 85 82 89 98 98 93 91 91 87 81 71 55 44 36 22 5 346 327 312 290 259 250 251 253 259 259 259 258 256 255 255 257 262 266 269 271 275 281 287 295 303 306 307 308 309
292 309 324 335 344 349 355 358 2 7 11 12 14 13 12 13 15 16 18 22 24 26 27 26 26 26 27 31 41 62 76 82 81 81 81 81 85 91 98 99 97 93 89 87 83 86 94 95 93 89 84 75 67 61 57 53 44 33 23 12 357 358 351 251 253 274 271 272 272 269 264 258 256 255 259 269 275 277 279 283 290 297 303 310 317 319 319 319
282 296 312 326 337 345 350 355 359 4 8 10 12 13 11 11 14 15 16 20 23 26 27 27 26 26 26 29 39 60 78 85 86 84 81 81 86 90 93 95 93 90 89 89 87 86 88 91 90 83 76 72 68 63 57 47 35 29 32 36 37 41 52 74 328 315 282 279 296 316 282 268 277 274 276 286 292 292 294 296 300 306 313 324 334 338 339 339
273 285 299 314 328 339 345 350 355 360 5 8 10 12 10 10 12 13 14 17 21 25 26 27 27 26 25 27 35 52 74 82 80 78 79 80 84 88 92 95 91 86 84 84 85 84 85 90 91 85 74 69 65 59 50 38 30 34 45 51 56 61 63 61 41 25 11 356 342 334 333 337 332 319 307 306 316 331 335 332 329 330 337 343 348 354 1 4
266 275 287 301 315 330 339 344 349 355 1 4 7 9 8 8 10 11 12 14 19 23 25 26 26 26 25 25 31 42 56 61 55 60 74 78 79 81 85 90 89 83 78 78 81 86 92 92 89 83 71 64 60 53 46 38 36 45 58 59 64 68 65 59 49 42 32 16 356 347 353 352 351 6 32 37 30 27 14 1 357 357 1 2 4 11 17 19
262 268 277 289 301 316 330 338 343 349 356 1 4 6 6 6 8 10 10 11 16 21 24 26 26 26 27 26 28 35 41 39 34 44 64 73 73 70 70 79 83 74 69 70 73 81 91 87 82 79 70 62 56 49 43 40 43 57 68 67 65 64 61 57 52 46 38 31 25 26 33 32 43 59 55 46 40 32 22 20 21 20 20 21 25 28 28 27
259 263 269 279 289 302 317 329 336 341 349 356 360 2 2 2 5 7 8 9 13 18 21 24 25 26 27 28 27 30 35 36 35 37 47 60 63 57 60 72 73 67 60 62 70 76 79 75 74 74 64 57 53 48 44 41 47 62 74 71 62 59 59 57 53 47 43 45 45 48 51 50 57 58 47 40 35 32 33 35 36 34 32 31 30 29 29 29
255 259 264 271 280 290 304 317 327 334 341 349 355 357 357 358 1 5 6 7 10 16 19 21 24 25 26 28 27 28 32 35 37 32 34 50 51 41 55 66 65 61 50 57 78 83 75 68 65 61 54 50 48 46 44 41 47 58 69 68 59 56 59 59 53 48 50 54 51 51 53 53 54 50 43 42 42 43 43 40 38 39 38 35 31 30 30 28
252 256 260 265 272 280 291 304 316 325 332 340 347 351 351 353 357 0 3 4 7 14 17 17 23 25 25 26 27 27 30 33 37 35 35 46 42 30 49 64 65 64 61 73 85 80 71 63 54 45 39 40 41 39 37 38 46 54 60 61 54 51 58 59 50 48 55 57 54 55 56 56 53 49 47 47 48 48 46 43 41 40 38 34 31 29 28 25
248 253 256 260 266 273 281 291 302 314 324 330 337 343 345 346 350 355 359 1 4 11 15 15 20 25 24 24 25 28 30 32 35 37 38 45 46 40 52 69 79 78 84 88 75 68 66 59 48 38 30 30 31 31 32 36 48 56 58 58 53 50 56 56 47 46 54 57 57 57 59 59 56 53 51 48 45 44 44 43 39 35 33 31 27 24 22 20
245 249 252 256 260 266 273 280 290 301 313 322 327 333 337 337 340 348 353 356 360 8 14 11 18 26 24 20 21 28 32 33 35 38 40 43 47 47 54 69 82 87 93 90 71 67 63 51 46 39 30 25 23 25 32 41 54 62 60 57 52 49 50 51 47 45 49 55 57 57 58 60 59 54 49 45 42 39 38 39 38 35 31 27 23 21 19 18
243 245 248 251 255 261 266 272 279 287 299 311 317 322 329 329 330 337 346 351 354 5 12 7 15 27 23 15 17 25 33 35 37 39 41 42 43 43 49 62 74 87 99 92 68 63 54 47 48 47 39 32 27 29 39 51 60 64 61 55 51 49 49 49 47 41 42 50 52 52 51 51 52 47 42 41 37 31 28 31 33 29 23 21 21 21 17 13
243 244 245 248 251 255 260 265 270 275 285 299 308 313 318 321 321 326 337 345 347 358 9 5 13 26 21 10 13 22 29 35 39 40 40 42 44 44 48 57 60 67 76 58 41 44 41 39 40 39 39 39 38 38 46 53 54 56 55 45 38 42 44 42 41 36 33 38 39 41 40 39 43 42 37 34 26 20 18 20 19 17 17 18 18 17 13 6
243 243 244 245 248 251 255 259 263 266 273 285 296 302 307 311 314 317 328 337 338 349 2 6 12 22 18 7 9 18 24 32 38 37 37 41 45 45 49 55 52 49 51 46 43 44 38 27 21 21 26 33 36 35 39 43 42 43 42 35 30 31 31 31 35 31 23 24 25 28 30 29 32 34 34 29 19 14 12 11 12 14 19 17 12 10 10 9
244 244 244 245 246 248 251 255 258 260 265 273 282 292 298 302 306 310 320 328 327 334 353 6 12 15 11 5 7 15 20 30 39 37 35 39 43 44 49 56 56 48 45 43 44 45 41 35 27 20 21 21 23 28 31 28 25 24 27 30 30 25 16 14 21 20 15 13 14 14 15 18 19 18 20 14 7 9 6 3 9 14 16 13 9 7 8 8
244 244 245 244 245 247 249 251 254 256 259 264 271 283 289 293 297 302 311 319 316 317 341 358 5 5 2 3 6 10 16 28 40 41 38 39 43 44 46 53 57 55 49 47 50 52 54 66 72 67 55 39 28 24 19 16 15 16 21 27 25 15 3 360 4 10 12 9 7 4 5 13 13 6 4 355 351 357 357 356 4 11 10 8 8 7 4 3
244 245 245 245 245 246 247 249 252 254 256 259 265 274 281 284 288 294 302 309 305 301 319 337 352 359 355 357 1 5 11 21 37 43 42 44 48 48 47 51 55 55 54 56 62 66 70 79 85 86 81 63 44 29 20 16 13 13 19 23 16 2 354 352 355 3 11 8 5 7 9 11 8 1 360 350 344 347 347 347 352 360 2 360 1 4 1 0
244 244 245 245 245 245 246 247 249 252 254 257 261 266 272 276 280 285 290 297 294 286 289 308 333 350 350 345 347 356 4 14 33 42 43 48 53 53 51 51 54 55 56 61 68 74 74 75 74 72 65 49 38 36 31 23 16 13 15 15 4 352 348 351 356 2 8 5 3 7 6 2 358 355 351 344 340 340 339 340 340 342 347 350 353 357 357 357
243 243 244 245 245 245 245 247 248 250 252 254 256 258 265 271 273 276 280 284 283 277 274 285 306 330 341 334 323 337 352 5 31 43 43 46 51 54 54 52 54 56 59 63 67 70 72 71 69 67 64 55 46 43 42 37 33 30 27 23 13 1 358 5 11 12 11 8 7 6 0 354 351 347 342 341 343 342 342 342 339 338 344 351 355 356 355 355
242 242 243 244 244 244 244 245 246 247 249 251 253 255 260 265 267 269 272 274 275 272 268 271 285 304 324 325 306 309 331 351 22 45 47 45 47 54 58 56 52 53 59 63 65 67 70 72 72 69 65 61 55 51 50 47 48 48 48 47 45 41 38 36 35 33 31 28 25 20 13 6 2 357 355 359 3 6 9 8 3 1 3 5 4 2 0 359
242 241 242 243 243 244 244 244 244 245 246 248 250 252 255 259 261 263 264 266 267 265 263 264 275 288 301 310 299 287 299 326 355 39 51 50 48 52 59 61 54 50 55 61 66 69 70 72 73 71 69 69 67 64 61 61 62 63 62 62 62 62 60 57 54 50 46 44 41 38 35 35 34 31 29 30 31 35 38 37 32 28 22 18 14 10 10 11
242 242 242 242 242 243 243 243 243 243 244 246 248 249 251 254 256 257 258 259 259 259 261 263 270 282 290 295 294 279 273 289 313 350 41 50 53 53 56 61 57 52 55 59 64 69 70 71 74 75 75 76 74 72 71 72 73 72 69 67 66 66 65 63 59 54 50 48 47 48 49 51 50 48 48 47 48 50 50 48 45 40 33 29 27 28 30 30
237 241 243 241 241 241 241 242 242 242 243 244 245 246 248 249 251 253 253 254 254 253 256 259 262 275 285 285 282 274 264 262 275 291 325 18 50 56 57 61 61 56 57 58 60 67 70 72 74 75 75 75 75 75 75 76 78 77 73 70 68 67 66 63 59 55 52 51 52 53 53 54 54 53 53 53 53 52 52 51 49 44 39 35 37 41 42 38
229 234 239 241 241 240 240 240 241 241 242 243 243 244 245 246 247 249 250 251 250 248 250 254 257 266 278 279 274 270 260 252 255 265 277 297 336 35 58 67 63 56 56 58 60 65 70 73 74 73 72 71 72 74 74 75 76 75 73 70 68 66 65 63 60 57 55 55 55 54 53 53 53 53 55 58 58 56 56 56 55 52 48 43 42 43 44 43
229 228 231 235 239 240 240 239 239 239 240 242 243 243 243 243 244 246 247 247 245 243 244 247 252 260 271 276 271 265 257 248 248 251 255 267 282 290 11 79 75 59 54 59 64 66 68 73 74 73 72 71 70 72 72 71 71 71 70 68 66 66 64 63 61 59 57 56 55 53 52 53 53 53 58 63 63 61 61 61 60 59 58 55 53 53 52 49
231 229 227 227 231 236 239 239 238 238 239 240 241 242 241 240 242 244 244 243 241 238 238 240 246 254 264 271 269 265 258 246 242 244 245 247 257 271 292 79 96 66 53 56 62 65 67 73 75 72 72 71 69 68 68 67 66 65 65 65 65 65 65 63 60 58 56 55 54 53 52 51 51 53 59 63 63 60 59 57 57 57 58 56 53 51 48 42
232 231 230 227 225 227 233 237 237 236 236 238 239 241 240 239 240 241 241 240 238 236 236 239 243 249 257 265 267 264 259 248 240 238 239 241 247 257 269 271 264 272 24 47 54 58 61 69 73 71 69 68 67 64 61 61 59 57 59 61 63 63 62 60 59 57 57 56 55 55 54 52 50 52 57 61 61 58 54 51 49 49 49 48 44 41 37 33
232 232 231 230 227 224 225 230 235 235 235 235 238 239 239 238 238 239 240 240 238 237 237 240 244 249 254 259 261 260 257 249 238 233 232 236 241 246 252 260 265 269 280 313 21 45 52 59 66 69 65 62 64 61 57 56 53 52 53 54 57 59 59 59 59 58 58 57 55 55 56 56 54 53 54 56 58 58 54 50 46 44 44 42 38 37 34 31
232 232 231 231 230 226 222 223 228 233 234 234 236 238 237 236 237 238 238 238 237 235 235 238 243 249 253 254 252 252 253 248 238 232 230 231 235 238 240 245 253 260 266 273 283 322 33 39 49 61 60 56 58 59 55 52 49 50 50 48 50 55 59 61 61 60 59 58 56 54 54 58 62 60 55 53 55 56 53 50 47 46 44 39 35 34 32 31
230 231 230 230 231 229 226 223 222 227 232 234 236 236 235 234 236 236 236 237 237 233 230 232 237 243 247 246 243 246 250 248 243 238 232 227 229 232 235 238 245 253 257 259 263 274 317 357 4 40 53 47 45 50 52 48 44 44 44 42 41 45 52 56 58 59 59 58 56 54 52 54 61 63 59 55 55 52 47 44 42 42 41 38 35 32 30 29
229 230 229 229 231 230 228 226 222 222 228 233 236 235 233 232 234 235 236 239 240 235 230 230 233 238 242 244 245 246 247 246 244 242 236 227 224 228 230 231 235 241 248 250 252 254 258 272 296 314 41 43 35 36 44 43 37 36 39 36 32 32 39 46 50 51 53 53 53 52 50 49 52 56 56 53 49 45 41 37 34 35 35 34 33 32 29 27
228 229 229 228 229 229 228 228 225 221 224 230 235 235 232 230 231 232 235 238 237 234 230 229 230 235 239 243 245 245 242 240 237 236 232 224 222 226 228 228 229 236 242 244 246 250 252 254 264 262 257 359 29 22 34 41 31 25 30 32 28 24 25 32 40 43 43 43 44 44 45 44 46 49 51 49 45 40 36 32 29 29 29 27 28 28 27 25
227 228 228 227 228 228 227 228 228 224 224 227 231 233 231 229 230 232 234 237 235 231 230 228 230 234 236 238 241 241 239 238 236 236 236 227 221 224 226 227 230 234 238 240 242 248 252 254 262 268 267 274 326 346 3 25 25 14 12 17 22 22 19 21 29 36 38 36 35 37 37 36 37 40 44 46 44 41 36 31 27 27 26 24 24 24 24 24
227 227 228 226 227 227 226 227 228 226 226 225 227 231 230 227 228 230 232 234 233 230 230 229 230 233 235 236 239 240 239 237 234 233 236 232 224 222 221 223 228 232 234 236 238 243 248 253 260 267 275 281 290 306 327 349 1 3 359 1 13 19 18 18 22 30 35 35 33 31 31 31 29 28 32 37 41 41 36 29 26 25 24 22 23 22 23 24
227 227 227 226 226 226 226 226 227 227 227 226 226 227 227 226 226 226 228 231 231 229 229 229 228 229 231 233 237 239 237 236 232 228 230 232 229 226 220 219 224 229 230 229 232 238 243 247 253 259 269 278 281 287 299 318 332 346 352 354 6 16 17 17 19 25 31 34 32 28 26 28 27 22 20 25 32 35 33 28 24 24 22 19 19 21 23 25
227 227 228 226 225 225 226 226 226 227 227 227 226 226 226 225 225 225 226 229 230 229 228 227 225 225 227 229 232 233 234 234 231 228 229 232 232 231 225 222 226 230 230 227 228 234 239 241 247 253 258 266 273 278 286 297 314 334 344 349 359 10 15 15 16 20 25 29 29 26 23 25 26 22 15 16 21 24 28 30 25 20 18 16 17 18 19 22
226 227 228 226 224 224 225 225 225 226 227 228 227 227 226 225 225 224 225 227 229 229 227 226 225 224 225 227 229 230 232 234 231 227 224 223 225 227 225 223 226 231 233 231 230 235 239 242 248 252 255 260 268 275 285 292 304 322 334 338 346 356 7 14 14 15 19 21 21 20 19 18 20 20 16 13 14 14 17 25 23 17 15 14 14 14 11 13
224 225 227 227 224 223 225 226 225 225 226 227 227 227 226 225 223 222 222 225 227 227 227 225 224 224 224 225 227 229 232 233 230 226 220 218 222 225 224 223 226 231 235 235 235 239 243 245 249 253 257 262 269 277 282 286 293 307 318 324 334 345 354 4 8 11 16 17 14 12 12 9 7 10 13 15 15 9 7 12 15 15 13 11 10 11 10 9
224 224 226 227 226 223 223 225 225 224 224 225 226 227 226 225 223 220 220 224 227 227 228 226 223 223 222 222 224 227 230 231 228 225 223 223 226 227 226 224 226 229 231 231 234 240 244 245 248 254 259 264 270 274 277 279 281 287 294 302 323 343 347 352 356 359 7 12 10 7 6 4 360 357 0 11 17 11 3 3 6 9 11 9 7 9 10 8
225 224 225 226 226 224 223 224 225 224 224 223 224 227 227 225 223 220 218 222 226 227 228 227 224 223 223 223 224 226 227 229 228 224 224 226 227 226 227 226 225 227 229 229 232 238 243 245 249 255 260 263 263 265 269 268 267 267 274 287 308 333 337 341 343 345 354 360 1 1 360 358 355 350 349 358 10 10 1 358 359 2 6 6 4 4 6 6
225 224 224 225 226 225 224 224 224 224 224 223 223 226 227 226 224 222 219 221 223 225 227 228 226 226 226 226 227 227 227 229 228 225 224 224 224 224 226 228 228 230 234 235 235 237 239 241 244 250 254 255 254 258 263 264 261 262 270 280 289 301 314 326 332 337 345 347 347 351 353 351 347 343 340 344 356 2 358 354 354 356 359 1 1 0 1 2
224 224 224 224 224 225 225 224 224 224 224 223 223 224 226 226 226 225 223 222 223 224 226 227 226 225 226 226 225 225 226 229 229 226 224 224 223 222 223 227 228 229 233 236 236 236 236 235 236 240 244 246 247 253 258 259 260 263 268 272 276 283 297 315 323 327 336 338 336 340 345 345 342 339 337 336 340 347 349 348 348 348 350 354 356 356 355 357
Height
10808 10806 10804 10802 10800 10798 10795 10792 10789 10786 10782 10778 10775 10771 10767 10764 10760 10755 10751 10746 10742 10738 10734 10731 10728 10726 10724 10723 10722 10721 10720 10719 10718 10718 10718 10717 10716 10716 10716 10716 10716 10717 10718 10718 10719 10719 10720 10721 10722 10722 10723 10724 10724 10724 10725 10727 10728 10729 10729 10728 10729 10730 10729 10729 10728 10728 10727 10728 10728 10728 10728 10728 10728 10729 10729 10729 10728 10728 10728 10728 10728 10728 10727 10726 10726 10727 10727 10727
10808 10806 10804 10803 10801 10798 10796 10793 10790 10787 10784 10780 10777 10773 10769 10766 10762 10758 10753 10749 10745 10741 10737 10733 10730 10728 10726 10725 10724 10722 10721 10721 10720 10720 10721 10720 10720 10720 10719 10719 10719 10719 10719 10719 10720 10721 10722 10722 10723 10724 10724 10725 10725 10725 10726 10727 10728 10728 10728 10728 10729 10729 10729 10728 10728 10728 10727 10727 10727 10727 10727 10727 10727 10727 10728 10728 10728 10727 10727 10727 10727 10727 10726 10725 10725 10726 10726 10726
10808 10806 10805 10803 10801 10799 10797 10794 10792 10789 10785 10782 10778 10775 10771 10768 10764 10760 10755 10751 10747 10743 10739 10736 10733 10730 10728 10727 10726 10724 10723 10722 10722 10723 10723 10724 10723 10723 10722 10721 10721 10721 10721 10721 10721 10722 10723 10723 10724 10725 10726 10726 10726 10727 10727 10728 10728 10728 10728 10728 10728 10728 10728 10728 10728 10728 10727 10727 10727 10726 10726 10726 10726 10726 10726 10727 10727 10727 10726 10726 10726 10726 10725 10725 10724 10724 10724 10724
10808 10807 10805 10803 10801 10799 10797 10795 10793 10790 10787 10784 10780 10776 10773 10769 10765 10761 10757 10753 10750 10745 10741 10737 10734 10732 10730 10728 10727 10726 10725 10725 10725 10725 10725 10726 10725 10724 10724 10723 10723 10723 10723 10723 10723 10724 10724 10724 10725 10726 10727 10727 10727 10728 10728 10728 10728 10728 10728 10728 10728 10728 10728 10727 10727 10727 10727 10727 10726 10726 10725 10725 10725 10725 10725 10725 10725 10725 10725 10725 10724 10724 10724 10723 10723 10722 10722 10722
10808 10807 10805 10803 10802 10800 10798 10796 10793 10791 10788 10785 10782 10778 10774 10771 10767 10763 10759 10756 10752 10748 10743 10739 10736 10734 10732 10731 10730 10728 10727 10727 10726 10725 10726 10727 10726 10726 10725 10725 10725 10725 10724 10724 10725 10725 10725 10725 10725 10726 10727 10728 10728 10728 10728 10728 10728 10727 10727 10727 10727 10727 10727 10727 10727 10727 10726 10726 10726 10725 10725 10724 10724 10724 10724 10724 10724 10724 10724 10724 10723 10723 10722 10722 10721 10721 10721 10720
10808 10807 10805 10804 10802 10800 10798 10796 10794 10792 10789 10786 10783 10780 10776 10773 10770 10766 10762 10759 10755 10750 10746 10742 10739 10737 10735 10733 10732 10730 10728 10727 10726 10726 10727 10728 10728 10728 10728 10728 10727 10726 10726 10725 10725 10725 10726 10725 10726 10727 10727 10728 10728 10728 10728 10728 10728 10728 10727 10727 10726 10726 10726 10726 10726 10726 10726 10725 10725 10724 10724 10723 10723 10723 10723 10723 10723 10723 10722 10722 10722 10721 10721 10721 10720 10720 10720 10719
10808 10807 10805 10804 10802 10801 10799 10797 10795 10793 10790 10788 10785 10782 10778 10775 10772 10769 10765 10761 10758 10753 10749 10745 10742 10739 10737 10735 10733 10731 10729 10728 10727 10728 10729 10729 10729 10729 10730 10729 10729 10728 10727 10727 10726 10726 10726 10726 10726 10727 10727 10728 10728 10728 10727 10728 10728 10728 10727 10727 10726 10725 10725 10725 10725 10725 10724 10724 10723 10723 10722 10722 10722 10722 10722 10722 10721 10721 10721 10720 10720 10720 10720 10720 10719 10719 10719 10718
10808 10807 10805 10804 10803 10801 10799 10797 10796 10794 10791 10789 10786 10783 10780 10777 10774 10771 10767 10764 10760 10756 10752 10748 10744 10741 10739 10737 10735 10734 10732 10730 10729 10730 10731 10731 10731 10731 10731 10731 10730 10729 10729 10728 10728 10727 10727 10727 10726 10727 10727 10728 10728 10728 10728 10728 10727 10727 10727 10726 10725 10724 10724 10723 10723 10723 10723 10723 10722 10722 10721 10721 10721 10721 10721 10720 10720 10720 10719 10719 10719 10719 10719 10719 10718 10718 10718 10717
10807 10806 10805 10804 10803 10801 10800 10798 10796 10794 10792 10790 10787 10785 10782 10779 10776 10773 10769 10766 10762 10758 10754 10750 10747 10743 10741 10739 10738 10737 10733 10731 10732 10732 10732 10732 10732 10731 10731 10732 10732 10731 10730 10730 10729 10728 10728 10727 10727 10727 10727 10728 10728 10728 10728 10728 10727 10726 10725 10725 10724 10723 10722 10722 10721 10721 10721 10721 10721 10720 10720 10719 10719 10719 10719 10719 10719 10718 10718 10718 10718 10718 10718 10718 10717 10717 10717 10716
10807 10806 10805 10804 10803 10801 10800 10798 10797 10795 10793 10791 10789 10786 10783 10780 10777 10775 10771 10768 10765 10762 10758 10753 10750 10746 10743 10741 10741 10738 10735 10733 10734 10734 10734 10734 10733 10732 10732 10732 10733 10732 10731 10731 10730 10729 10728 10728 10728 10728 10728 10728 10728 10729 10728 10728 10727 10725 10724 10724 10723 10722 10721 10721 10720 10720 10720 10719 10719 10719 10718 10718 10718 10718 10718 10718 10718 10717 10717 10717 10717 10717 10717 10717 10717 10717 10716 10715
10806 10805 10804 10803 10803 10801 10800 10799 10797 10796 10794 10792 10790 10787 10785 10782 10779 10776 10774 10771 10767 10764 10760 10756 10752 10749 10746 10744 10743 10740 10737 10736 10737 10737 10736 10735 10734 10733 10733 10733 10733 10733 10733 10732 10731 10729 10728 10728 10729 10729 10729 10729 10729 10729 10729 10728 10727 10725 10724 10723 10722 10721 10720 10720 10719 10719 10718 10718 10718 10717 10717 10717 10716 10717 10717 10717 10717 10716 10716 10717 10717 10717 10717 10717 10717 10716 10715 10715
10805 10804 10804 10803 10802 10801 10800 10799 10798 10796 10795 10793 10791 10788 10786 10783 10781 10778 10775 10773 10769 10766 10763 10759 10755 10752 10750 10748 10745 10742 10739 10739 10739 10739 10738 10737 10736 10735 10734 10734 10734 10734 10733 10733 10732 10731 10730 10730 10730 10730 10730 10730 10730 10730 10729 10728 10727 10725 10723 10722 10720 10720 10719 10719 10719 10718 10718 10717 10717 10716 10716 10716 10716 10716 10716 10716 10716 10716 10716 10716 10717 10717 10718 10717 10717 10716 10715 10714
10804 10803 10803 10802 10801 10801 10800 10799 10798 10796 10795 10793 10792 10790 10787 10785 10782 10780 10777 10774 10771 10768 10765 10762 10759 10756 10753 10750 10747 10743 10742 10742 10742 10741 10739 10738 10738 10737 10736 10736 10735 10735 10734 10734 10734 10733 10733 10732 10732 10732 10731 10731 10731 10730 10729 10728 10727 10725 10723 10721 10720 10719 10719 10719 10719 10719 10718 10717 10717 10716 10716 10716 10716 10716 10716 10716 10716 10716 10716 10716 10716 10717 10717 10717 10716 10715 10714 10714
10802 10802 10802 10801 10801 10800 10799 10799 10798 10796 10795 10794 10792 10790 10788 10786 10784 10781 10779 10776 10773 10770 10768 10765 10762 10759 10756 10753 10749 10746 10745 10745 10744 10742 10740 10740 10739 10738 10738 10737 10737 10737 10736 10736 10735 10735 10735 10734 10734 10733 10733 10732 10731 10730 10729 10728 10726 10725 10723 10722 10721 10720 10719 10719 10720 10719 10718 10717 10717 10716 10716 10715 10715 10715 10715 10716 10716 10715 10715 10716 10716 10716 10716 10716 10715 10714 10714 10713
10801 10801 10800 10800 10800 10799 10799 10798 10797 10796 10795 10794 10793 10791 10789 10787 10785 10782 10780 10778 10775 10772 10770 10767 10764 10761 10758 10755 10751 10748 10748 10747 10746 10744 10742 10741 10740 10740 10740 10739 10739 10739 10738 10738 10737 10736 10736 10736 10735 10735 10734 10733 10732 10731 10729 10728 10727 10725 10724 10723 10722 10721 10720 10721 10721 10720 10718 10717 10716 10716 10715 10715 10715 10715 10715 10715 10715 10715 10715 10715 10715 10715 10715 10715 10714 10714 10713 10713
10799 10799 10799 10799 10799 10798 10798 10797 10797 10796 10795 10794 10793 10792 10790 10788 10786 10784 10781 10779 10777 10774 10772 10769 10767 10764 10761 10758 10754 10751 10750 10749 10747 10745 10743 10742 10741 10741 10741 10741 10740 10739 10739 10739 10738 10737 10737 10737 10736 10735 10735 10734 10732 10732 10730 10729 10727 10726 10725 10724 10724 10723 10722 10722 10722 10721 10719 10718 10717 10716 10715 10715 10715 10715 10715 10715 10715 10715 10715 10715 10715 10715 10715 10714 10714 10713 10712 10712
10797 10798 10798 10797 10797 10797 10797 10797 10796 10796 10795 10794 10793 10792 10790 10789 10787 10785 10783 10780 10778 10775 10773 10771 10769 10766 10763 10760 10756 10753 10752 10750 10748 10746 10745 10743 10742 10742 10742 10741 10741 10740 10740 10739 10738 10738 10738 10737 10737 10736 10735 10734 10733 10732 10731 10730 10729 10727 10726 10725 10725 10724 10724 10724 10723 10722 10721 10719 10717 10717 10716 10716 10716 10716 10716 10716 10716 10715 10715 10715 10715 10715 10714 10714 10713 10712 10712 10711
10795 10796 10796 10796 10796 10796 10796 10796 10795 10795 10794 10794 10793 10792 10791 10789 10787 10786 10784 10781 10779 10777 10774 10772 10770 10766 10764 10762 10759 10757 10755 10752 10749 10747 10746 10744 10743 10743 10742 10741 10741 10741 10741 10740 10739 10738 10738 10738 10737 10736 10735 10734 10734 10732 10731 10731 10729 10728 10726 10726 10726 10726 10725 10725 10725 10724 10722 10719 10718 10718 10717 10717 10717 10717 10717 10717 10716 10715 10715 10715 10715 10714 10714 10713 10713 10712 10711 10711
10793 10794 10794 10794 10794 10794 10794 10794 10794 10794 10794 10793 10792 10792 10791 10789 10788 10786 10784 10782 10780 10777 10775 10774 10771 10768 10766 10764 10762 10760 10757 10754 10751 10749 10747 10745 10744 10745 10743 10742 10742 10741 10741 10742 10740 10738 10738 10739 10738 10736 10735 10735 10734 10733 10732 10731 10729 10728 10727 10727 10727 10727 10726 10727 10726 10725 10722 10720 10720 10719 10718 10717 10717 10718 10718 10717 10716 10716 10716 10715 10714 10714 10714 10713 10713 10712 10711 10711
10790 10791 10792 10792 10793 10793 10793 10793 10793 10793 10793 10792 10792 10791 10790 10789 10788 10787 10785 10783 10781 10779 10776 10775 10773 10770 10767 10766 10766 10763 10759 10756 10753 10750 10748 10746 10746 10746 10744 10743 10743 10742 10742 10742 10740 10739 10739 10739 10739 10737 10736 10735 10735 10734 10733 10731 10730 10730 10729 10728 10728 10728 10728 10728 10727 10725 10723 10722 10721 10720 10719 10718 10718 10719 10718 10717 10716 10716 10716 10715 10714 10714 10714 10713 10713 10712 10711 10711
10787 10788 10789 10790 10791 10791 10791 10791 10792 10792 10792 10791 10791 10790 10790 10789 10788 10787 10785 10784 10782 10780 10777 10776 10774 10771 10769 10769 10769 10766 10762 10758 10756 10753 10750 10748 10747 10747 10746 10745 10744 10743 10742 10742 10741 10739 10739 10740 10739 10738 10737 10736 10736 10735 10734 10732 10731 10731 10730 10729 10729 10729 10729 10729 10727 10726 10725 10724 10723 10721 10720 10719 10719 10719 10719 10718 10718 10717 10716 10715 10715 10715 10714 10713 10712 10711 10711 10710
10784 10785 10786 10788 10788 10789 10789 10790 10790 10790 10790 10790 10790 10790 10789 10788 10787 10787 10785 10784 10783 10781 10779 10778 10775 10772 10771 10772 10771 10768 10764 10761 10758 10754 10751 10749 10748 10748 10747 10745 10744 10744 10743 10743 10742 10740 10740 10740 10740 10739 10738 10738 10737 10736 10735 10734 10732 10731 10730 10730 10731 10731 10730 10730 10728 10727 10726 10725 10724 10723 10722 10721 10721 10720 10720 10719 10718 10718 10717 10716 10715 10715 10713 10712 10712 10711 10710 10709
10781 10782 10783 10785 10786 10787 10787 10788 10788 10789 10789 10789 10789 10788 10788 10787 10787 10786 10785 10784 10783 10781 10780 10778 10776 10773 10773 10774 10772 10769 10766 10763 10760 10755 10753 10752 10750 10750 10748 10746 10745 10745 10744 10744 10743 10741 10741 10740 10740 10739 10739 10739 10738 10738 10737 10735 10733 10733 10732 10733 10732 10732 10731 10730 10729 10728 10727 10726 10725 10724 10723 10723 10722 10721 10721 10720 10719 10718 10717 10717 10716 10715 10713 10712 10711 10711 10710 10710
10777 10779 10780 10781 10783 10784 10785 10786 10786 10787 10787 10787 10787 10787 10786 10786 10786 10785 10785 10784 10783 10781 10780 10778 10776 10774 10775 10775 10773 10770 10767 10764 10760 10757 10756 10755 10754 10752 10749 10747 10747 10747 10745 10745 10744 10742 10741 10741 10740 10739 10740 10740 10739 10739 10737 10735 10735 10735 10735 10734 10733 10732 10731 10731 10730 10729 10728 10727 10726 10725 10724 10723 10722 10722 10722 10721 10720 10718 10717 10716 10716 10715 10714 10712 10711 10711 10711 10710
10774 10775 10776 10778 10780 10781 10782 10783 10784 10784 10785 10785 10785 10785 10785 10785 10784 10784 10784 10783 10782 10781 10780 10778 10776 10776 10776 10775 10773 10771 10769 10765 10762 10760 10759 10757 10756 10754 10751 10749 10749 10748 10747 10746 10745 10744 10743 10743 10743 10742 10741 10741 10740 10739 10738 10737 10737 10737 10736 10735 10734 10733 10732 10731 10730 10730 10729 10728 10727 10725 10724 10723 10722 10722 10721 10720 10719 10718 10717 10716 10715 10714 10714 10713 10712 10711 10710 10710
10769 10771 10773 10775 10777 10778 10779 10780 10781 10782 10783 10783 10783 10783 10783 10783 10783 10783 10783 10782 10781 10780 10779 10778 10777 10777 10776 10775 10774 10772 10770 10767 10765 10764 10762 10760 10757 10755 10754 10752 10751 10750 10749 10748 10747 10746 10746 10746 10745 10745 10744 10743 10742 10741 10740 10739 10738 10737 10736 10735 10734 10733 10732 10731 10731 10730 10730 10729 10728 10726 10725 10724 10723 10722 10721 10720 10718 10717 10717 10716 10715 10714 10713 10713 10712 10711 10710 10710
10765 10767 10768 10771 10773 10774 10776 10777 10778 10779 10780 10781 10782 10782 10781 10781 10781 10781 10781 10781 10780 10779 10779 10778 10777 10776 10775 10775 10774 10773 10771 10769 10767 10766 10764 10762 10760 10758 10757 10755 10753 10752 10752 10751 10749 10749 10748 10748 10747 10747 10745 10745 10744 10743 10741 10740 10739 10737 10736 10735 10734 10733 10732 10731 10731 10730 10730 10729 10728 10727 10726 10724 10723 10723 10722 10720 10719 10717 10716 10715 10715 10714 10714 10713 10712 10711 10711 10710
10760 10762 10764 10766 10769 10771 10772 10773 10775 10777 10778 10779 10779 10779 10779 10779 10779 10780 10780 10779 10779 10778 10778 10778 10777 10776 10775 10774 10774 10773 10772 10771 10768 10767 10766 10764 10763 10761 10759 10757 10756 10755 10754 10753 10752 10751 10750 10750 10749 10748 10747 10745 10744 10743 10741 10740 10738 10737 10736 10736 10735 10733 10732 10732 10731 10730 10730 10729 10728 10726 10725 10724 10724 10723 10722 10721 10719 10718 10716 10715 10714 10714 10713 10713 10713 10712 10711 10710
10754 10757 10759 10762 10764 10766 10768 10770 10772 10774 10775 10776 10776 10776 10777 10777 10777 10778 10778 10778 10777 10777 10777 10777 10776 10775 10775 10774 10773 10773 10772 10771 10769 10768 10767 10766 10764 10762 10760 10759 10759 10758 10756 10755 10754 10753 10751 10751 10750 10749 10747 10745 10743 10742 10741 10740 10739 10738 10737 10736 10735 10734 10733 10732 10731 10730 10729 10729 10728 10726 10725 10724 10723 10722 10721 10720 10719 10718 10716 10715 10714 10713 10713 10713 10713 10712 10711 10710
10748 10751 10754 10757 10759 10762 10764 10766 10768 10770 10772 10772 10773 10774 10774 10774 10775 10775 10775 10776 10776 10775 10775 10775 10775 10775 10774 10773 10773 10772 10771 10771 10770 10768 10767 10766 10765 10763 10761 10761 10761 10760 10758 10756 10755 10754 10753 10753 10751 10750 10748 10746 10744 10743 10741 10740 10739 10738 10737 10737 10736 10735 10734 10732 10731 10730 10729 10729 10727 10726 10725 10724 10723 10722 10720 10719 10718 10716 10715 10715 10714 10714 10713 10713 10712 10712 10710 10709
10743 10745 10749 10752 10754 10757 10760 10762 10764 10766 10768 10769 10770 10771 10771 10771 10772 10772 10773 10774 10774 10773 10774 10774 10774 10773 10773 10772 10772 10771 10771 10770 10770 10769 10767 10766 10765 10764 10762 10762 10761 10761 10759 10758 10757 10756 10755 10754 10752 10751 10749 10748 10746 10745 10743 10742 10741 10740 10739 10739 10738 10736 10735 10733 10732 10731 10730 10729 10728 10727 10725 10724 10723 10721 10720 10718 10717 10716 10715 10715 10714 10714 10713 10713 10712 10711 10710 10710
10736 10739 10743 10746 10749 10752 10755 10757 10760 10762 10764 10765 10766 10767 10768 10769 10769 10769 10770 10771 10772 10771 10772 10772 10772 10772 10772 10771 10771 10770 10769 10769 10769 10768 10767 10767 10765 10764 10763 10762 10762 10762 10761 10760 10759 10757 10757 10755 10753 10753 10752 10750 10749 10747 10746 10745 10744 10743 10742 10741 10740 10738 10736 10735 10734 10733 10732 10730 10729 10728 10727 10725 10723 10722 10720 10719 10718 10717 10716 10716 10715 10714 10713 10713 10712 10712 10711 10711
10729 10733 10737 10740 10743 10746 10749 10752 10755 10758 10760 10761 10762 10763 10764 10765 10766 10766 10768 10769 10769 10769 10770 10770 10770 10770 10770 10769 10769 10769 10768 10768 10768 10768 10767 10766 10766 10765 10764 10763 10762 10762 10762 10761 10760 10758 10757 10756 10755 10755 10754 10752 10751 10750 10749 10747 10747 10746 10745 10743 10741 10740 10739 10738 10737 10735 10734 10733 10732 10730 10729 10727 10726 10724 10723 10721 10720 10719 10718 10717 10716 10715 10714 10713 10712 10712 10712 10711
10722 10726 10729 10734 10737 10741 10744 10747 10750 10753 10755 10756 10758 10759 10760 10761 10762 10763 10765 10766 10766 10767 10768 10768 10768 10768 10768 10768 10768 10767 10767 10767 10767 10767 10766 10766 10765 10765 10764 10763 10762 10763 10763 10762 10760 10759 10758 10757 10756 10756 10755 10754 10753 10751 10750 10749 10748 10747 10746 10745 10743 10742 10742 10741 10739 10738 10737 10736 10734 10733 10731 10730 10728 10727 10725 10724 10722 10721 10720 10719 10718 10717 10716 10715 10714 10713 10712 10712
10716 10718 10722 10726 10731 10735 10738 10742 10745 10748 10750 10752 10754 10755 10755 10757 10758 10760 10762 10763 10764 10765 10765 10765 10766 10766 10766 10766 10766 10766 10766 10766 10766 10765 10765 10765 10765 10764 10764 10763 10763 10763 10763 10762 10761 10760 10759 10758 10757 10757 10756 10755 10754 10753 10752 10751 10750 10749 10747 10746 10745 10744 10744 10743 10742 10741 10739 10738 10736 10735 10734 10732 10730 10729 10728 10726 10725 10724 10723 10721 10720 10719 10718 10716 10715 10714 10713 10713
10710 10712 10715 10719 10723 10728 10733 10736 10740 10743 10745 10748 10750 10749 10750 10754 10755 10757 10759 10760 10760 10761 10761 10762 10763 10763 10764 10764 10764 10764 10764 10764 10764 10764 10764 10764 10764 10763 10763 10762 10763 10763 10763 10762 10761 10760 10760 10758 10758 10758 10757 10756 10755 10754 10753 10752 10751 10750 10748 10747 10747 10747 10746 10745 10743 10742 10740 10739 10738 10737 10735 10734 10732 10731 10729 10728 10727 10726 10725 10723 10723 10722 10720 10719 10718 10716 10714 10713
10702 10705 10709 10713 10716 10721 10726 10730 10734 10737 10740 10743 10744 10743 10746 10750 10751 10753 10755 10756 10757 10758 10758 10759 10760 10760 10761 10761 10762 10762 10762 10762 10762 10762 10762 10763 10762 10762 10762 10762 10762 10763 10762 10762 10761 10760 10760 10759 10758 10758 10757 10757 10756 10755 10754 10753 10752 10751 10750 10749 10749 10749 10748 10746 10745 10744 10743 10742 10740 10739 10737 10736 10734 10733 10732 10731 10729 10728 10727 10725 10724 10723 10722 10721 10720 10717 10715 10713
10693 10696 10702 10707 10710 10714 10720 10724 10728 10732 10735 10738 10737 10737 10741 10745 10747 10749 10751 10752 10753 10755 10756 10756 10757 10758 10758 10759 10760 10760 10760 10760 10760 10761 10761 10761 10761 10761 10761 10762 10762 10762 10762 10761 10761 10760 10760 10759 10759 10758 10757 10757 10756 10755 10755 10754 10753 10752 10752 10751 10751 10750 10749 10748 10747 10746 10745 10744 10742 10741 10740 10739 10738 10736 10735 10733 10731 10730 10730 10729 10727 10725 10723 10722 10720 10718 10716 10714
10684 10687 10695 10701 10703 10709 10714 10718 10722 10726 10730 10732 10730 10731 10737 10740 10742 10745 10747 10747 10750 10752 10753 10754 10755 10755 10756 10757 10758 10758 10757 10758 10758 10758 10759 10760 10760 10760 10760 10761 10760 10761 10761 10760 10760 10759 10759 10759 10759 10758 10757 10757 10756 10756 10756 10755 10754 10754 10753 10753 10752 10751 10751 10750 10749 10748 10747 10745 10744 10743 10742 10741 10740 10738 10737 10735 10734 10733 10732 10731 10729 10727 10725 10722 10720 10717 10716 10713
10675 10678 10687 10693 10696 10704 10710 10712 10716 10720 10723 10725 10724 10726 10731 10735 10737 10740 10741 10743 10746 10748 10749 10750 10751 10752 10753 10754 10755 10755 10755 10755 10756 10756 10757 10758 10759 10759 10759 10759 10759 10760 10759 10759 10759 10759 10758 10758 10758 10758 10757 10757 10756 10756 10755 10755 10755 10754 10754 10753 10753 10752 10751 10751 10750 10749 10748 10747 10745 10744 10743 10742 10740 10739 10738 10737 10736 10735 10734 10732 10730 10728 10725 10723 10720 10717 10715 10713
10666 10670 10679 10685 10688 10696 10703 10706 10709 10713 10716 10718 10717 10719 10725 10730 10733 10735 10737 10739 10743 10745 10746 10746 10747 10749 10750 10751 10752 10753 10753 10754 10754 10755 10755 10756 10757 10757 10758 10758 10758 10758 10758 10758 10758 10758 10758 10758 10758 10757 10757 10756 10756 10755 10755 10754 10754 10754 10754 10753 10753 10752 10752 10751 10750 10750 10749 10748 10746 10745 10743 10742 10740 10739 10739 10738 10737 10736 10734 10732 10730 10727 10725 10723 10721 10718 10716 10713
10658 10663 10670 10677 10680 10687 10695 10699 10703 10706 10707 10708 10709 10713 10720 10725 10728 10730 10733 10736 10739 10741 10742 10743 10743 10745 10746 10748 10749 10750 10751 10751 10752 10752 10753 10754 10755 10755 10756 10756 10757 10757 10756 10757 10757 10757 10757 10757 10757 10757 10756 10756 10755 10755 10754 10754 10754 10754 10753 10753 10753 10752 10751 10751 10750 10749 10749 10748 10747 10745 10743 10742 10741 10740 10739 10738 10737 10736 10734 10732 10730 10727 10724 10723 10721 10719 10717 10715
10650 10654 10659 10667 10672 10678 10687 10692 10696 10699 10699 10699 10703 10708 10715 10721 10723 10725 10728 10731 10734 10737 10738 10738 10739 10741 10743 10745 10746 10747 10748 10749 10749 10750 10750 10751 10752 10752 10754 10755 10755 10755 10755 10755 10756 10756 10756 10756 10756 10756 10755 10755 10755 10754 10754 10753 10753 10753 10753 10753 10752 10752 10751 10751 10750 10749 10748 10748 10747 10745 10744 10742 10741 10740 10739 10738 10737 10735 10734 10732 10729 10726 10724 10722 10721 10720 10719 10716
10640 10643 10648 10658 10664 10670 10679 10684 10687 10690 10691 10693 10699 10703 10709 10715 10717 10719 10723 10726 10729 10731 10732 10733 10735 10737 10740 10742 10743 10744 10745 10746 10747 10748 10748 10749 10749 10750 10752 10753 10753 10754 10754 10754 10754 10754 10754 10755 10755 10755 10754 10754 10754 10754 10753 10753 10753 10753 10752 10752 10752 10751 10751 10750 10750 10749 10748 10747 10747 10746 10745 10743 10741 10740 10739 10738 10737 10735 10733 10731 10729 10726 10725 10723 10722 10720 10718 10716
10629 10633 10638 10648 10656 10662 10669 10674 10677 10682 10684 10688 10693 10696 10702 10708 10709 10712 10717 10720 10723 10725 10727 10728 10731 10733 10736 10738 10739 10741 10742 10743 10744 10745 10746 10746 10747 10748 10749 10751 10751 10751 10752 10753 10753 10753 10753 10753 10753 10753 10753 10753 10753 10753 10752 10751 10751 10751 10751 10751 10751 10750 10750 10750 10749 10748 10747 10747 10746 10745 10744 10743 10742 10740 10738 10737 10736 10735 10733 10731 10729 10727 10726 10724 10722 10720 10717 10716
10618 10624 10628 10637 10646 10653 10659 10663 10668 10674 10677 10682 10688 10691 10696 10700 10702 10707 10712 10715 10716 10719 10721 10723 10725 10728 10730 10733 10735 10737 10738 10739 10741 10743 10744 10745 10746 10746 10747 10748 10748 10749 10750 10751 10751 10751 10751 10752 10752 10752 10752 10751 10751 10751 10751 10750 10750 10750 10750 10750 10750 10750 10749 10749 10749 10748 10747 10746 10746 10745 10744 10743 10741 10739 10737 10736 10735 10734 10733 10732 10730 10728 10726 10724 10721 10719 10717 10716
10609 10615 10618 10625 10636 10645 10649 10653 10660 10666 10671 10678 10683 10686 10690 10693 10696 10702 10707 10709 10710 10712 10715 10717 10719 10722 10725 10727 10730 10733 10734 10736 10738 10741 10742 10743 10744 10744 10744 10745 10746 10747 10748 10749 10749 10749 10749 10750 10750 10750 10750 10750 10750 10750 10749 10749 10749 10749 10749 10748 10748 10748 10748 10748 10748 10747 10747 10745 10745 10744 10743 10742 10741 10740 10738 10736 10734 10733 10732 10731 10730 10728 10725 10723 10721 10719 10717 10715
10598 10603 10606 10614 10627 10636 10641 10645 10653 10660 10665 10672 10676 10678 10681 10685 10689 10695 10700 10702 10703 10704 10707 10711 10714 10717 10720 10723 10726 10729 10730 10733 10736 10738 10739 10740 10740 10741 10742 10743 10744 10745 10746 10747 10748 10747 10747 10748 10748 10748 10748 10748 10748 10748 10748 10748 10748 10748 10747 10747 10747 10747 10747 10747 10746 10746 10746 10745 10744 10743 10742 10741 10740 10739 10738 10736 10734 10732 10730 10728 10728 10726 10725 10723 10722 10720 10718 10715
10587 10592 10597 10605 10616 10627 10633 10637 10644 10650 10656 10662 10667 10668 10672 10677 10681 10687 10691 10693 10695 10696 10700 10704 10708 10710 10714 10718 10722 10724 10727 10730 10732 10734 10736 10737 10738 10739 10740 10741 10742 10743 10744 10745 10745 10745 10745 10745 10746 10746 10746 10746 10746 10746 10746 10747 10746 10746 10746 10746 10746 10746 10746 10745 10745 10744 10744 10744 10743 10742 10741 10740 10739 10737 10737 10736 10734 10732 10729 10727 10725 10725 10724 10723 10722 10720 10718 10716
10574 10581 10588 10596 10606 10616 10623 10627 10633 10641 10646 10654 10659 10659 10663 10669 10673 10676 10681 10684 10686 10690 10695 10699 10703 10706 10709 10714 10717 10720 10724 10727 10729 10731 10733 10734 10735 10736 10737 10738 10739 10740 10740 10741 10742 10742 10743 10744 10744 10744 10744 10744 10744 10744 10745 10745 10744 10744 10744 10744 10745 10745 10745 10745 10744 10743 10742 10742 10741 10741 10740 10739 10737 10736 10734 10734 10733 10732 10730 10727 10725 10723 10722 10721 10720 10718 10717 10716
10563 10571 10578 10586 10595 10605 10612 10617 10624 10631 10638 10646 10650 10651 10654 10661 10665 10668 10674 10677 10680 10685 10691 10696 10701 10704 10707 10710 10713 10717 10721 10724 10725 10727 10729 10731 10732 10733 10735 10735 10736 10738 10738 10739 10739 10740 10741 10742 10742 10742 10742 10742 10742 10743 10743 10743 10742 10742 10743 10742 10743 10743 10743 10743 10743 10742 10741 10741 10740 10740 10739 10738 10736 10734 10733 10733 10732 10731 10729 10728 10725 10723 10721 10720 10718 10716 10715 10714
10550 10559 10568 10577 10585 10593 10601 10608 10615 10623 10631 10637 10641 10643 10648 10655 10659 10664 10670 10672 10675 10681 10688 10692 10696 10699 10701 10705 10708 10713 10717 10719 10720 10723 10726 10727 10728 10730 10730 10731 10733 10735 10736 10736 10737 10738 10738 10739 10739 10739 10739 10740 10741 10741 10741 10740 10740 10740 10740 10740 10740 10740 10741 10742 10741 10741 10740 10740 10739 10738 10738 10737 10736 10734 10732 10731 10731 10730 10729 10727 10725 10724 10722 10720 10718 10716 10714 10712